Weather History for Sioux Falls, SD

Change the Weather History Date:

Sunday, December 23, 2012

  Actual Average Record
Temperature  
Mean Temperature 10 °F 17 °F  
Max Temperature 16 °F 27 °F 57 °F (1899)
Min Temperature 3 °F 8 °F -28 °F (1990)
Degree Days  
Heating Degree Days 55 48  
Month to date heating degree days 886 1035  
Since 1 July heating degree days 2489 2747  
Cooling Degree Days 0 0  
Month to date cooling degree days 0 0  
Year to date cooling degree days 1182 690  
Moisture  
Dew Point 6 °F    
Average Humidity 81    
Maximum Humidity 88    
Minimum Humidity 73    
Precipitation  
Precipitation T in 0.02 in 0.34 in (1938)
Month to date precipitation 1.05 0.54  
Year to date precipitation 17.08 26.23  
Snow  
Snow T in 0.20 in 2.60 in (1996)
Month to date snowfall 7.6 6.2  
Since 1 July snowfall 8.7 14.9  
Snow Depth 2.00 in    
Sea Level Pressure  
Sea Level Pressure 30.10 in    
Wind  
Wind Speed 5 mph (NE)    
Max Wind Speed 13 mph    
Max Gust Speed 15 mph    
Visibility 9 miles    
Events Snow    
T = Trace of Precipitation, MM = Missing Value Source: NWS Daily Summary

Daily Weather History Graph

Daily Weather History Graph

Search for Another Location

Airport:

Trip Planner

Search our weather history database for the weather conditions in past years. The results will help you decide how hot, cold, wet, or windy it might be!

Date:

Astronomy

Dec. 23, 2012 Rise Set
Actual Time 7:58 AM CST 4:54 PM CST
Civil Twilight 7:25 AM CST 5:27 PM CST
Nautical Twilight 6:49 AM CST 6:03 PM CST
Astronomical Twilight 6:14 AM CST 6:38 PM CST
Moon 1:49 PM CST (12/23) 3:37 AM CST (12/23)
Length of Visible Light 10h 02m
Length of Day
8h 56m
Waxing Gibbous, 82% of the Moon is Illuminated
Dec 23
Waxing Gibbous
Dec 28
Full
Jan 4
Last Quarter
Jan 11
New
Jan 18
First Quarter

Hourly Weather History & Observations

Time (CST) Temp. Windchill Dew Point Humidity Pressure Visibility Wind Dir Wind Speed Gust Speed Precip Events Conditions
12:56 AM 7.0 °F -1.7 °F 3.0 °F 84% 30.12 in 10.0 mi North 4.6 mph - N/A   Clear
1:56 AM 7.0 °F -6.6 °F 3.0 °F 84% 30.12 in 10.0 mi NNE 9.2 mph - N/A   Clear
2:56 AM 8.1 °F -2.0 °F 3.0 °F 80% 30.13 in 10.0 mi North 5.8 mph - N/A   Clear
3:56 AM 7.0 °F -3.3 °F 3.0 °F 84% 30.13 in 10.0 mi NNE 5.8 mph - N/A   Clear
4:56 AM 5.0 °F -4.1 °F 1.9 °F 87% 30.15 in 10.0 mi North 4.6 mph - N/A   Clear
5:42 AM 5.0 °F -4.1 °F 1.4 °F 85% 30.05 in 10.0 mi North 4.6 mph - N/A   Partly Cloudy
5:56 AM 5.0 °F -2.1 °F 1.0 °F 84% 30.15 in 10.0 mi North 3.5 mph - N/A   Partly Cloudy
6:56 AM 3.0 °F -4.4 °F -0.0 °F 87% 30.16 in 10.0 mi NW 3.5 mph - N/A   Partly Cloudy
7:56 AM 3.9 °F -8.2 °F -0.0 °F 84% 30.14 in 10.0 mi NE 6.9 mph - N/A   Partly Cloudy
8:56 AM 7.0 °F -3.3 °F 3.0 °F 84% 30.14 in 10.0 mi ENE 5.8 mph - N/A   Clear
9:56 AM 10.0 °F 0.4 °F 5.0 °F 80% 30.14 in 10.0 mi East 5.8 mph - N/A   Clear
10:23 AM 10.4 °F -1.5 °F 5.0 °F 79% 30.04 in 8.0 mi East 8.1 mph - N/A   Scattered Clouds
10:32 AM 10.4 °F -1.5 °F 6.8 °F 85% 30.04 in 8.0 mi East 8.1 mph - 0.00 in Snow Light Snow
10:49 AM 10.4 °F 0.8 °F 6.8 °F 85% 30.04 in 8.0 mi East 5.8 mph - 0.00 in   Scattered Clouds
10:56 AM 12.0 °F 2.7 °F 7.0 °F 80% 30.14 in 8.0 mi ENE 5.8 mph - 0.00 in   Scattered Clouds
11:56 AM 14.0 °F 3.9 °F 9.0 °F 80% 30.13 in 10.0 mi East 6.9 mph - N/A   Clear
12:56 PM 15.1 °F 3.3 °F 9.0 °F 77% 30.10 in 10.0 mi East 9.2 mph - N/A   Clear
1:56 PM 15.1 °F 4.2 °F 9.0 °F 77% 30.09 in 10.0 mi ESE 8.1 mph - N/A   Clear
2:56 PM 15.1 °F 3.3 °F 9.0 °F 77% 30.07 in 10.0 mi East 9.2 mph - N/A   Clear
3:56 PM 15.1 °F 6.4 °F 9.0 °F 77% 30.10 in 10.0 mi ENE 5.8 mph - N/A   Clear
4:56 PM 12.0 °F 1.5 °F 8.1 °F 84% 30.12 in 10.0 mi NE 6.9 mph - N/A   Clear
5:56 PM 12.0 °F 2.7 °F 7.0 °F 80% 30.09 in 10.0 mi East 5.8 mph - N/A   Clear
6:56 PM 10.9 °F - 7.0 °F 84% 30.09 in 10.0 mi Calm Calm - N/A   Clear
7:19 PM 8.6 °F - 6.8 °F 92% 30.00 in 10.0 mi Calm Calm - N/A   Mostly Cloudy
7:56 PM 12.0 °F - 8.1 °F 84% 30.11 in 10.0 mi Calm Calm - N/A   Overcast
8:56 PM 12.9 °F 5.2 °F 9.0 °F 84% 30.11 in 9.0 mi NW 4.6 mph - 0.00 in Snow Light Snow
9:56 PM 12.0 °F - 9.0 °F 88% 30.09 in 7.0 mi Calm Calm - 0.00 in Snow Light Snow
10:39 PM 12.2 °F - 8.6 °F 85% 29.99 in 6.0 mi Calm Calm - 0.00 in Snow Light Snow
10:56 PM 12.9 °F 6.9 °F 9.0 °F 84% 30.09 in 7.0 mi NNW 3.5 mph - 0.00 in Snow Light Snow
11:56 PM 12.0 °F 0.5 °F 9.0 °F 88% 30.09 in 7.0 mi NW 8.1 mph - 0.00 in Snow Light Snow